GW3840 Weather Reports


Display with metric or nautical units.
time (UTC)temp
F
wind
direction
speed
MPH
gust
MPH
rain 1hr
in
rain 24hr
in
rain mn
in
humidity
%
barometer
mb
20260831181533 82 273 6.0 9.0 0.00 0.00 0.00 44 1014.2
20260831181032 81 221 2.0 7.0 0.00 0.00 0.00 45 1014.2
20260831180527 82 342 3.0 8.0 0.00 0.00 0.00 47 1014.3
20260831180022 80 12 3.0 7.0 0.00 0.00 0.00 48 1014.2
20260831175517 81 335 4.0 7.0 0.00 0.00 0.00 48 1014.2
20260831175014 81 330 3.0 8.0 0.00 0.00 0.00 49 1014.3
20260831174508 80 306 7.0 8.0 0.00 0.00 0.00 48 1014.4
20260831174003 80 14 2.0 6.0 0.00 0.00 0.00 52 1014.4
20260831173501 79 331 2.0 8.0 0.00 0.00 0.00 53 1014.4
20260831172957 78 315 5.0 8.0 0.00 0.00 0.00 54 1014.2
20260831172453 80 279 5.0 8.0 0.00 0.00 0.00 52 1014.3
20260831171948 79 335 2.0 6.0 0.00 0.00 0.00 54 1014.2
20260831171443 80 324 3.0 8.0 0.00 0.00 0.00 52 1014.5
20260831170940 79 292 2.0 6.0 0.00 0.00 0.00 56 1014.5
20260831170436 78 269 5.0 7.0 0.00 0.00 0.00 53 1014.2
20260831165932 79 314 4.0 6.0 0.00 0.00 0.00 55 1014.3
20260831165428 78 346 3.0 8.0 0.00 0.00 0.00 56 1014.2
20260831164924 78 296 4.0 6.0 0.00 0.00 0.00 57 1014.4
20260831164420 77 16 4.0 6.0 0.00 0.00 0.00 62 1014.3
20260831163915 77 349 6.0 9.0 0.00 0.00 0.00 60 1014.2
20260831163411 77 290 3.0 8.0 0.00 0.00 0.00 62 1014.2
20260831162909 78 334 6.0 8.0 0.00 0.00 0.00 61 1014.2
20260831162405 78 283 5.0 7.0 0.00 0.00 0.00 64 1014.3
20260831161903 77 354 4.0 6.0 0.00 0.00 0.00 67 1014.2
20260831161400 77 289 3.0 7.0 0.00 0.00 0.00 65 1014.5
20260831160855 76 352 3.0 7.0 0.00 0.00 0.00 68 1014.5
20260831160349 77 48 3.0 6.0 0.00 0.00 0.00 66 1014.5
20260831155844 75 303 4.0 6.0 0.00 0.00 0.00 70 1014.4
20260831155338 75 293 5.0 10.0 0.00 0.00 0.00 70 1014.5
20260831154834 74 263 4.0 6.0 0.00 0.00 0.00 74 1014.5
20260831154331 74 240 1.0 3.0 0.00 0.00 0.00 75 1014.5
20260831153829 73 265 4.0 4.0 0.00 0.00 0.00 77 1014.4
20260831153325 72 309 3.0 6.0 0.00 0.00 0.00 80 1014.3
20260831152821 72 280 5.0 8.0 0.00 0.00 0.00 80 1014.1
20260831152317 72 287 2.0 7.0 0.00 0.00 0.00 82 1014.2
20260831151812 72 317 4.0 4.0 0.00 0.00 0.00 81 1014.1
20260831151311 71 330 2.0 3.0 0.00 0.00 0.00 84 1014.2
20260831150806 71 338 3.0 6.0 0.00 0.00 0.00 84 1013.9
20260831150301 71 268 3.0 6.0 0.00 0.00 0.00 85 1013.7
20260831145800 71 342 3.0 4.0 0.00 0.00 0.00 84 1013.7
20260831145257 71 305 6.0 8.0 0.00 0.00 0.00 84 1013.9
20260831144752 70 334 2.0 8.0 0.00 0.00 0.00 86 1013.7
20260831144249 71 329 3.0 4.0 0.00 0.00 0.00 86 1013.7
20260831143748 70 228 2.0 6.0 0.00 0.00 0.00 89 1013.7
20260831143243 69 263 5.0 7.0 0.00 0.00 0.00 89 1013.5
20260831142739 68 317 3.0 4.0 0.00 0.00 0.00 90 1013.6
20260831142234 68 351 5.0 8.0 0.00 0.00 0.00 91 1013.9
20260831141733 69 258 4.0 7.0 0.00 0.00 0.00 90 1013.7
20260831141228 69 294 6.0 9.0 0.00 0.00 0.00 90 1013.5
20260831140728 69 55 2.0 6.0 0.00 0.00 0.00 90 1013.4
20260831140222 69 340 4.0 6.0 0.00 0.00 0.00 90 1013.4
20260831135720 68 275 2.0 6.0 0.00 0.00 0.00 92 1013.2
20260831135216 68 44 2.0 7.0 0.00 0.00 0.00 93 1013.1
20260831134712 68 50 2.0 7.0 0.00 0.00 0.00 93 1013.2
20260831134208 68 268 3.0 6.0 0.00 0.00 0.00 93 1013.2
20260831133706 67 278 6.0 9.0 0.00 0.00 0.00 94 1013.1
20260831133201 67 287 6.0 10.0 0.00 0.00 0.00 95 1013.1
20260831132657 67 338 4.0 10.0 0.00 0.00 0.00 96 1013.0
20260831132156 67 9 5.0 8.0 0.00 0.00 0.00 95 1013.1
20260831131651 67 287 3.0 8.0 0.00 0.00 0.00 95 1013.0
20260831131148 68 14 5.0 7.0 0.00 0.00 0.00 95 1013.0
20260831130642 67 332 3.0 9.0 0.00 0.00 0.00 96 1012.6
20260831130138 67 348 2.0 8.0 0.00 0.00 0.00 97 1012.9
20260831125636 67 297 2.0 4.0 0.00 0.00 0.00 97 1012.7
20260831125132 67 298 4.0 13.0 0.00 0.00 0.00 96 1012.5
20260831124628 68 281 6.0 8.0 0.00 0.00 0.00 96 1012.2
20260831124124 68 286 3.0 4.0 0.00 0.00 0.00 97 1012.1
20260831123623 68 315 4.0 4.0 0.00 0.00 0.00 99 1012.0
20260831123122 68 290 4.0 4.0 0.00 0.00 0.00 99 1011.5
20260831122622 68 282 2.0 6.0 0.00 0.00 0.00 99 1011.6
20260831122118 68 263 2.0 3.0 0.00 0.00 0.00 99 1011.7
20260831121617 68 297 3.0 6.0 0.00 0.00 0.00 99 1011.7
20260831121114 68 307 3.0 7.0 0.00 0.00 0.00 99 1011.6
20260831120609 68 242 3.0 4.0 0.00 0.00 0.00 99 1011.6
20260831120104 68 281 4.0 8.0 0.00 0.00 0.00 99 1011.6
20260831115600 68 266 2.0 6.0 0.00 0.00 0.00 99 1011.3
20260831115055 68 244 3.0 6.0 0.00 0.00 0.00 99 1011.2
20260831114554 69 287 2.0 7.0 0.00 0.00 0.00 99 1010.9
20260831114049 69 263 2.0 6.0 0.00 0.00 0.00 99 1010.8
20260831113548 69 229 4.0 8.0 0.00 0.00 0.00 99 1010.8
20260831113045 69 329 3.0 7.0 0.00 0.00 0.00 99 1010.7
20260831112543 70 242 3.0 8.0 0.00 0.00 0.00 99 1010.5
20260831112039 70 293 6.0 7.0 0.00 0.00 0.00 99 1010.5
20260831111535 70 295 3.0 9.0 0.00 0.00 0.00 99 1010.5
20260831111030 70 255 4.0 7.0 0.00 0.00 0.00 99 1010.4
20260831110525 70 296 3.0 9.0 0.00 0.00 0.00 99 1010.3
20260831110020 71 253 5.0 9.0 0.00 0.00 0.00 99 1010.3
20260831105514 71 281 8.0 11.0 0.00 0.00 0.00 99 1010.2
20260831105009 71 262 8.0 16.0 0.00 0.00 0.00 99 1010.2
20260831104505 71 295 6.0 9.0 0.00 0.00 0.00 99 1010.0
20260831104001 72 247 4.0 7.0 0.00 0.00 0.00 99 1010.0
20260831103500 72 263 3.0 6.0 0.00 0.00 0.00 99 1009.9
20260831102956 72 273 4.0 6.0 0.00 0.00 0.00 99 1009.9
20260831102451 72 286 4.0 7.0 0.00 0.00 0.00 99 1009.7
20260831101946 72 272 5.0 7.0 0.00 0.00 0.00 99 1010.0
20260831101441 72 286 4.0 6.0 0.00 0.00 0.00 99 1009.7
20260831100937 72 247 3.0 4.0 0.00 0.00 0.00 99 1009.6
20260831100433 72 261 4.0 7.0 0.00 0.00 0.00 99 1009.6
20260831095928 72 254 4.0 4.0 0.00 0.00 0.00 99 1009.7
20260831095427 72 270 3.0 3.0 0.00 0.00 0.00 99 1009.6
20260831094922 72 284 2.0 3.0 0.00 0.00 0.00 99 1009.6
20260831094418 73 244 2.0 4.0 0.00 0.00 0.00 99 1009.6
20260831093914 73 253 2.0 6.0 0.00 0.00 0.00 99 1009.6
20260831093409 73 280 4.0 4.0 0.00 0.00 0.00 99 1009.5
20260831092906 73 255 3.0 6.0 0.00 0.00 0.00 99 1009.5
20260831092401 73 257 2.0 4.0 0.00 0.00 0.00 99 1009.4
20260831091855 73 264 2.0 3.0 0.00 0.00 0.00 99 1009.6
20260831091350 73 242 2.0 4.0 0.00 0.00 0.00 99 1009.1
20260831090845 74 259 3.0 4.0 0.00 0.00 0.00 99 1009.4
20260831090336 74 288 2.0 6.0 0.00 0.00 0.00 99 1009.2
20260831085832 74 274 2.0 7.0 0.00 0.00 0.00 99 1009.2
20260831085326 74 295 4.0 8.0 0.00 0.00 0.00 99 1009.1
20260831084821 74 287 7.0 10.0 0.00 0.00 0.00 99 1009.1
20260831084317 73 220 1.0 4.0 0.00 0.00 0.00 99 1009.1
20260831083813 73 232 1.0 4.0 0.00 0.00 0.00 99 1009.1
20260831083308 73 265 3.0 3.0 0.00 0.00 0.00 99 1009.2
20260831082807 73 281 2.0 2.0 0.00 0.00 0.00 99 1008.9
20260831082306 72 263 1.0 1.0 0.00 0.00 0.00 99 1009.1
20260831081758 72 260 0.0 0.0 0.00 0.00 0.00 99 1008.8
20260831081248 73 246 2.0 3.0 0.00 0.00 0.00 99 1009.0
20260831080743 72 216 4.0 4.0 0.00 0.00 0.00 99 1009.0
20260831080237 72 240 1.0 2.0 0.00 0.00 0.00 99 1009.0
20260831075733 72 238 1.0 2.0 0.00 0.00 0.00 99 1009.2
20260831075229 71 237 0.0 3.0 0.00 0.00 0.00 99 1009.1
20260831074728 71 245 0.0 0.0 0.00 0.00 0.00 99 1008.9
20260831074222 71 214 0.0 1.0 0.00 0.00 0.00 99 1008.8
20260831073718 71 218 0.0 1.0 0.00 0.00 0.00 99 1008.7
20260831073216 71 238 0.0 1.0 0.00 0.00 0.00 99 1008.7
20260831072712 71 162 0.0 2.0 0.00 0.00 0.00 99 1008.4
20260831072208 70 196 0.0 0.0 0.00 0.00 0.00 99 1008.4
20260831071708 70 219 0.0 0.0 0.00 0.00 0.00 99 1008.5
20260831071202 70 223 0.0 0.0 0.00 0.00 0.00 99 1008.5
20260831070656 69 215 0.0 0.0 0.00 0.00 0.00 99 1008.3
20260831070150 69 216 0.0 0.0 0.00 0.00 0.00 99 1008.4
20260831065650 69 192 0.0 0.0 0.00 0.00 0.00 99 1008.4
20260831065148 70 192 0.0 0.0 0.00 0.00 0.00 99 1008.5
20260831064643 70 141 0.0 0.0 0.00 0.00 0.00 99 1008.3
20260831064134 71 213 0.0 0.0 0.00 0.00 0.00 99 1008.4
20260831063630 71 115 0.0 0.0 0.00 0.00 0.00 99 1008.3
20260831063124 71 150 0.0 0.0 0.00 0.00 0.00 99 1008.2
20260831062618 71 210 0.0 0.0 0.00 0.00 0.00 99 1008.4
20260831062112 71 103 0.0 1.0 0.00 0.00 0.00 99 1008.3
20260831061610 71 137 0.0 0.0 0.00 0.00 0.00 99 1008.5
20260831061106 71 125 1.0 2.0 0.00 0.00 0.00 99 1008.3
20260831060602 71 84 0.0 1.0 0.00 0.00 0.00 99 1008.3
20260831060056 71 87 0.0 0.0 0.00 0.00 0.00 99 1008.3
20260831055551 72 109 1.0 1.0 0.00 0.00 0.00 99 1008.3
20260831055047 72 137 0.0 1.0 0.00 0.00 0.00 99 1008.4
20260831054546 72 96 1.0 2.0 0.00 0.00 0.00 99 1008.2
20260831054045 72 84 2.0 3.0 0.00 0.00 0.00 99 1008.4
20260831053544 72 140 0.0 1.0 0.00 0.00 0.00 99 1008.4
20260831053039 72 123 1.0 2.0 0.00 0.00 0.00 99 1008.6
20260831052538 72 102 2.0 3.0 0.00 0.00 0.00 99 1008.5
20260831052037 72 80 1.0 3.0 0.00 0.00 0.00 99 1008.5
20260831051535 72 76 3.0 3.0 0.00 0.00 0.00 99 1008.1
20260831051030 73 37 2.0 4.0 0.00 0.00 0.00 98 1008.3
20260831050529 72 99 1.0 2.0 0.00 0.00 0.00 98 1008.2
20260831050028 73 115 1.0 4.0 0.00 0.00 0.00 98 1008.3
20260831045527 73 121 1.0 4.0 0.00 0.00 0.00 98 1008.2
20260831045022 73 105 2.0 6.0 0.00 0.00 0.00 98 1008.3
20260831044518 73 111 1.0 3.0 0.00 0.00 0.00 98 1008.3
20260831044013 73 100 1.0 6.0 0.00 0.00 0.00 97 1008.3
20260831043513 73 117 4.0 8.0 0.00 0.00 0.00 97 1008.4
20260831043008 73 140 3.0 4.0 0.00 0.00 0.00 97 1008.7
20260831042508 73 122 3.0 7.0 0.00 0.00 0.00 97 1008.6
20260831042003 73 161 3.0 8.0 0.00 0.00 0.00 97 1008.7
20260831041458 73 105 3.0 8.0 0.00 0.00 0.00 96 1008.9
20260831040957 73 146 2.0 6.0 0.00 0.00 0.00 96 1008.8
20260831040453 73 88 6.0 9.0 0.00 0.00 0.00 96 1009.0
20260831035950 73 180 1.0 6.0 0.00 0.00 0.00 96 1009.0
20260831035449 73 148 4.0 6.0 0.00 0.00 0.00 96 1009.0
20260831034944 74 75 4.0 4.0 0.00 0.00 0.00 96 1009.3
20260831034439 74 109 4.0 7.0 0.00 0.00 0.00 95 1009.1
20260831033934 74 104 4.0 7.0 0.00 0.00 0.00 95 1009.5
20260831033430 74 52 3.0 4.0 0.00 0.00 0.00 95 1009.4
20260831032926 74 126 5.0 9.0 0.00 0.00 0.00 95 1009.3
20260831032425 74 165 3.0 8.0 0.00 0.00 0.00 95 1009.4
20260831031920 74 98 5.0 6.0 0.00 0.00 0.00 95 1009.2
20260831031420 74 113 5.0 8.0 0.00 0.00 0.00 95 1009.3
20260831030914 74 174 3.0 6.0 0.00 0.00 0.00 95 1009.3
20260831030413 74 174 1.0 6.0 0.00 0.00 0.00 94 1009.4
20260831025912 74 146 2.0 8.0 0.00 0.00 0.00 94 1009.2
20260831025412 74 98 5.0 9.0 0.00 0.00 0.00 95 1009.2
20260831024908 74 82 5.0 8.0 0.00 0.00 0.00 95 1009.0
20260831024407 74 97 4.0 7.0 0.00 0.00 0.00 94 1009.1
20260831023907 74 56 7.0 8.0 0.00 0.00 0.00 94 1008.8
20260831023405 74 56 4.0 8.0 0.00 0.00 0.00 94 1008.8
20260831022901 74 96 4.0 10.0 0.00 0.00 0.00 94 1008.9
20260831022359 74 80 2.0 7.0 0.00 0.00 0.00 94 1008.7
20260831021854 74 73 6.0 10.0 0.00 0.00 0.00 94 1008.7
20260831021348 74 114 2.0 9.0 0.00 0.00 0.00 94 1008.7
20260831020844 74 111 2.0 6.0 0.00 0.00 0.00 94 1008.6
20260831020338 75 146 1.0 7.0 0.00 0.00 0.00 93 1008.5
20260831015834 75 85 3.0 10.0 0.00 0.00 0.00 93 1008.5
20260831015330 75 163 4.0 8.0 0.00 0.00 0.00 93 1008.4
20260831014829 75 166 2.0 6.0 0.00 0.00 0.00 93 1008.4
20260831014324 75 91 5.0 7.0 0.00 0.00 0.00 93 1008.3
20260831013820 75 103 7.0 9.0 0.00 0.00 0.00 93 1008.4
20260831013319 75 142 2.0 8.0 0.00 0.00 0.00 92 1008.5
20260831012814 75 84 4.0 7.0 0.00 0.00 0.00 92 1008.4
20260831012310 75 106 3.0 6.0 0.00 0.00 0.00 92 1008.7
20260831011803 75 82 7.0 8.0 0.00 0.00 0.00 92 1008.5
20260831011258 75 194 3.0 7.0 0.00 0.00 0.00 91 1008.7
20260831010754 75 94 5.0 9.0 0.00 0.00 0.00 91 1008.6
20260831010248 75 86 2.0 8.0 0.00 0.00 0.00 91 1008.7
20260831005744 76 151 3.0 7.0 0.00 0.00 0.00 91 1008.8
20260831005239 76 66 8.0 9.0 0.00 0.00 0.00 91 1009.0
20260831004734 76 111 3.0 6.0 0.00 0.00 0.00 90 1008.9
20260831004231 76 134 5.0 7.0 0.00 0.00 0.00 90 1008.7
20260831003726 76 64 2.0 4.0 0.00 0.00 0.00 89 1008.8
20260831003222 76 100 6.0 7.0 0.00 0.00 0.00 89 1009.0
20260831002721 77 142 1.0 6.0 0.00 0.00 0.00 89 1008.8
20260831002215 77 137 2.0 13.0 0.00 0.00 0.00 88 1008.9
20260831001713 77 102 2.0 8.0 0.00 0.00 0.00 88 1008.7
20260831001212 77 96 4.0 8.0 0.00 0.00 0.00 88 1008.8
20260831000709 77 119 2.0 8.0 0.00 0.00 0.00 88 1008.8
20260831000204 77 54 9.0 14.0 0.00 0.00 0.00 87 1008.7
20260830235703 77 161 4.0 9.0 0.00 0.00 0.00 86 1008.6
20260830235158 77 92 4.0 9.0 0.00 0.00 0.00 86 1008.9
20260830234653 77 113 5.0 9.0 0.00 0.00 0.00 86 1009.2
20260830234149 77 95 5.0 8.0 0.00 0.00 0.00 86 1009.1
20260830233644 78 177 3.0 4.0 0.00 0.00 0.00 85 1009.2
20260830233139 78 149 2.0 9.0 0.00 0.00 0.00 85 1009.4
20260830232635 78 55 4.0 9.0 0.00 0.00 0.00 85 1009.5
20260830232130 77 115 6.0 7.0 0.00 0.00 0.00 85 1009.5
20260830231626 78 84 8.0 13.0 0.00 0.00 0.00 86 1009.4
20260830231120 78 110 6.0 9.0 0.00 0.00 0.00 85 1009.6
20260830230616 78 96 3.0 9.0 0.00 0.00 0.00 85 1009.5
20260830230115 78 93 7.0 9.0 0.00 0.00 0.00 85 1009.4
20260830225610 77 67 1.0 8.0 0.00 0.00 0.00 86 1009.4
20260830225105 77 88 4.0 8.0 0.00 0.00 0.00 86 1009.6
20260830224603 77 98 6.0 13.0 0.00 0.00 0.00 85 1009.5
20260830224100 77 102 4.0 10.0 0.00 0.00 0.00 85 1009.6
20260830223557 77 117 2.0 11.0 0.00 0.00 0.00 86 1009.7
20260830223057 77 83 7.0 10.0 0.00 0.00 0.00 86 1010.0
20260830222551 77 111 3.0 4.0 0.00 0.00 0.00 86 1010.2
20260830222048 77 53 2.0 3.0 0.00 0.00 0.00 86 1010.4
20260830221543 77 110 2.0 9.0 0.00 0.00 0.00 86 1010.1
20260830221039 77 173 3.0 6.0 0.00 0.00 0.00 86 1010.1
20260830220538 77 115 1.0 7.0 0.00 0.00 0.00 86 1009.7
20260830220037 77 35 4.0 13.0 0.00 0.00 0.00 86 1009.9
20260830215532 77 81 2.0 8.0 0.00 0.00 0.00 84 1009.6
20260830215027 78 170 5.0 8.0 0.00 0.00 0.00 84 1009.7
20260830214522 78 153 6.0 10.0 0.00 0.00 0.00 82 1009.6
20260830214021 78 114 2.0 8.0 0.00 0.00 0.00 84 1009.4
20260830213516 78 106 7.0 10.0 0.00 0.00 0.00 83 1009.7
20260830213012 79 145 4.0 9.0 0.00 0.00 0.00 82 1009.7
20260830212507 80 93 5.0 15.0 0.00 0.00 0.00 80 1009.6
20260830212002 79 170 1.0 9.0 0.00 0.00 0.00 82 1009.4
20260830211456 78 120 4.0 11.0 0.00 0.00 0.00 82 1009.4
20260830210951 79 111 4.0 10.0 0.00 0.00 0.00 81 1009.4
20260830210451 79 141 2.0 7.0 0.00 0.00 0.00 81 1009.4
20260830205943 80 94 4.0 10.0 0.00 0.00 0.00 80 1009.4
20260830205442 80 124 6.0 9.0 0.00 0.00 0.00 79 1009.6
20260830204938 80 229 5.0 11.0 0.00 0.00 0.00 80 1009.5
20260830204437 80 121 6.0 10.0 0.00 0.00 0.00 80 1009.6
20260830203932 81 102 5.0 8.0 0.00 0.00 0.00 79 1009.6
20260830203428 80 74 9.0 13.0 0.00 0.00 0.00 80 1009.7
20260830202927 79 92 8.0 11.0 0.00 0.00 0.00 80 1009.9
20260830202422 81 109 9.0 13.0 0.00 0.00 0.00 78 1009.9
20260830201913 81 53 6.0 8.0 0.00 0.00 0.00 78 1010.0
20260830201411 79 118 5.0 10.0 0.00 0.00 0.00 80 1010.0
20260830200907 79 77 7.0 10.0 0.00 0.00 0.00 81 1010.1
20260830200407 80 60 6.0 14.0 0.00 0.00 0.00 79 1010.0
20260830195857 81 142 3.0 8.0 0.00 0.00 0.00 77 1010.1
20260830195356 80 99 6.0 11.0 0.00 0.00 0.00 79 1010.4
20260830194854 80 223 6.0 9.0 0.00 0.00 0.00 78 1010.1
20260830194348 80 146 6.0 11.0 0.00 0.00 0.00 79 1010.2
20260830193837 80 133 6.0 9.0 0.00 0.00 0.00 79 1010.3
20260830193331 80 72 9.0 10.0 0.00 0.00 0.00 77 1010.3
20260830192827 80 17 2.0 10.0 0.00 0.00 0.00 79 1010.4
20260830192326 81 68 6.0 11.0 0.00 0.00 0.00 78 1010.4
20260830191822 81 156 6.0 14.0 0.00 0.00 0.00 78 1010.4
20260830191321 80 96 2.0 14.0 0.00 0.00 0.00 78 1010.5
20260830190818 82 88 11.0 14.0 0.00 0.00 0.00 76 1010.5
20260830190317 82 108 9.0 14.0 0.00 0.00 0.00 76 1010.6
20260830185816 81 94 6.0 13.0 0.00 0.00 0.00 76 1010.4
20260830185312 81 181 3.0 11.0 0.00 0.00 0.00 78 1010.5
20260830184807 80 82 11.0 15.0 0.00 0.00 0.00 78 1010.5
20260830184306 80 89 10.0 14.0 0.00 0.00 0.00 77 1010.5
20260830183802 80 81 3.0 6.0 0.00 0.00 0.00 78 1010.7
20260830183301 80 63 4.0 13.0 0.00 0.00 0.00 79 1010.8
20260830182756 80 197 7.0 18.0 0.00 0.00 0.00 79 1010.7
20260830182252 79 156 4.0 11.0 0.00 0.00 0.00 79 1010.6